QPF
0.00 0.00 0.00 0.00 0.00 0.01 0.10 0.00 0.00 0.00 0.00 0.00 0.00 0.00 0.00 0.00 0.00 0.01 0.01 0.01 0.00 0.01 0.02 0.02 0.03 0.02 0.00 0.00 0.00 0.00 0.00 0.00 0.00 0.00 0.00 0.00 0.00 0.00 0.00 0.00 0.00 0.00 0.00
0.00 0.00 0.00 0.00 0.00 0.02 0.08 0.00 0.00 0.00 0.00 0.00 0.00 0.00 0.00 0.00 0.01 0.00 0.00 0.01 0.01 0.00 0.02 0.02 0.02 0.01 0.01 0.01 0.00 0.00 0.00 0.00 0.00 0.00 0.00 0.00 0.00 0.00 0.00 0.00 0.00 0.00 0.00
0.00 0.00 0.00 0.00 0.01 0.00 0.00 0.00 0.00 0.00 0.00 0.00 0.00 0.00 0.00 0.00 0.00 0.00 0.00 0.00 0.00 0.01 0.01 0.00 0.00 0.01 0.01 0.01 0.01 0.00 0.00 0.01 0.00 0.00 0.00 0.00 0.00 0.00 0.00 0.00 0.00 0.00 0.00
0.00 0.00 0.00 0.00 0.04 0.00 0.00 0.00 0.00 0.00 0.00 0.00 0.00 0.00 0.00 0.00 0.00 0.00 0.00 0.00 0.00 0.00 0.00 0.00 0.00 0.01 0.00 0.00 0.00 0.00 0.00 0.00 0.00 0.00 0.00 0.00 0.00 0.00 0.00 0.00 0.00 0.00 0.00
0.00 0.00 0.00 0.00 0.00 0.00 0.00 0.00 0.00 0.00 0.00 0.00 0.00 0.00 0.00 0.00 0.00 0.00 0.00 0.00 0.00 0.00 0.00 0.00 0.01 0.01 0.01 0.00 0.00 0.00 0.00 0.00 0.00 0.00 0.00 0.00 0.00 0.00 0.00 0.00 0.00 0.00 0.00
0.00 0.00 0.00 0.00 0.00 0.00 0.00 0.00 0.00 0.00 0.00 0.00 0.00 0.00 0.00 0.00 0.00 0.00 0.00 0.00 0.00 0.00 0.00 0.00 0.00 0.00 0.01 0.00 0.01 0.00 0.00 0.00 0.00 0.00 0.00 0.00 0.00 0.00 0.00 0.00 0.00 0.00 0.00
0.00 0.00 0.00 0.00 0.00 0.00 0.00 0.00 0.00 0.00 0.00 0.00 0.00 0.00 0.00 0.00 0.00 0.00 0.00 0.00 0.00 0.00 0.00 0.00 0.00 0.00 0.00 0.00 0.01 0.00 0.00 0.00 0.00 0.00 0.00 0.00 0.00 0.00 0.00 0.00 0.00 0.00 0.00
0.00 0.00 0.00 0.03 0.01 0.03 0.03 0.01 0.00 0.01 0.00 0.00 0.00 0.00 0.00 0.00 0.00 0.00 0.00 0.00 0.00 0.00 0.00 0.00 0.00 0.00 0.00 0.00 0.00 0.01 0.01 0.00 0.00 0.00 0.00 0.00 0.00 0.01 0.00 0.00 0.00 0.00 0.00
0.00 0.00 0.00 0.01 0.01 0.01 0.01 0.01 0.02 0.07 0.05 0.03 0.03 0.02 0.01 0.00 0.00 0.00 0.00 0.00 0.00 0.00 0.00 0.00 0.00 0.00 0.00 0.00 0.00 0.00 0.01 0.00 0.00 0.00 0.00 0.00 0.00 0.01 0.00 0.00 0.00 0.00 0.00
0.00 0.00 0.00 0.02 0.01 0.01 0.06 0.06 0.06 0.06 0.06 0.05 0.04 0.01 0.01 0.00 0.02 0.01 0.00 0.00 0.00 0.00 0.00 0.00 0.00 0.00 0.00 0.00 0.00 0.00 0.00 0.00 0.00 0.00 0.00 0.00 0.00 0.00 0.01 0.01 0.00 0.00 0.00
0.00 0.00 0.00 0.00 0.04 0.02 0.05 0.01 0.03 0.04 0.00 0.01 0.01 0.00 0.00 0.00 0.00 0.00 0.00 0.00 0.00 0.00 0.00 0.00 0.00 0.00 0.00 0.00 0.00 0.00 0.00 0.00 0.00 0.00 0.00 0.00 0.00 0.00 0.01 0.02 0.01 0.00 0.00
0.00 0.00 0.00 0.00 0.00 0.00 0.01 0.00 0.00 0.00 0.00 0.00 0.00 0.00 0.00 0.00 0.00 0.00 0.00 0.00 0.00 0.00 0.00 0.00 0.00 0.00 0.00 0.00 0.00 0.00 0.00 0.00 0.00 0.00 0.00 0.00 0.00 0.00 0.01 0.02 0.01 0.00 0.00
0.00 0.00 0.00 0.00 0.00 0.00 0.00 0.00 0.00 0.00 0.00 0.00 0.00 0.00 0.00 0.00 0.00 0.00 0.00 0.00 0.00 0.00 0.00 0.00 0.00 0.00 0.00 0.00 0.00 0.00 0.00 0.00 0.00 0.00 0.00 0.00 0.00 0.00 0.01 0.04 0.03 0.00 0.00
0.00 0.00 0.00 0.00 0.00 0.00 0.00 0.00 0.00 0.00 0.00 0.00 0.00 0.00 0.00 0.00 0.00 0.00 0.00 0.00 0.00 0.00 0.00 0.00 0.00 0.00 0.00 0.00 0.00 0.00 0.00 0.00 0.00 0.00 0.00 0.00 0.00 0.00 0.00 0.02 0.04 0.02 0.00
0.00 0.00 0.00 0.00 0.00 0.00 0.00 0.00 0.00 0.00 0.00 0.00 0.00 0.00 0.00 0.00 0.00 0.00 0.00 0.00 0.00 0.00 0.00 0.00 0.00 0.00 0.00 0.00 0.00 0.00 0.00 0.00 0.00 0.00 0.00 0.00 0.00 0.00 0.00 0.00 0.00 0.03 0.03
0.00 0.00 0.00 0.00 0.00 0.00 0.00 0.00 0.00 0.00 0.00 0.00 0.00 0.00 0.00 0.00 0.00 0.00 0.00 0.00 0.00 0.00 0.00 0.00 0.00 0.00 0.00 0.00 0.00 0.00 0.00 0.00 0.00 0.00 0.00 0.00 0.00 0.00 0.00 0.00 0.00 0.01 0.05
0.00 0.00 0.00 0.00 0.00 0.00 0.00 0.00 0.00 0.00 0.00 0.00 0.00 0.00 0.00 0.00 0.00 0.00 0.00 0.00 0.00 0.00 0.00 0.00 0.00 0.00 0.00 0.00 0.00 0.00 0.00 0.00 0.00 0.00 0.00 0.00 0.00 0.00 0.00 0.00 0.00 0.00 0.01
0.00 0.00 0.00 0.00 0.00 0.00 0.00 0.00 0.00 0.00 0.00 0.00 0.00 0.00 0.00 0.00 0.00 0.00 0.00 0.00 0.00 0.00 0.00 0.00 0.00 0.00 0.00 0.00 0.00 0.00 0.00 0.00 0.00 0.00 0.00 0.00 0.00 0.00 0.00 0.00 0.00 0.00 0.00
0.00 0.00 0.00 0.00 0.00 0.00 0.00 0.00 0.00 0.00 0.00 0.00 0.00 0.00 0.00 0.00 0.00 0.00 0.00 0.00 0.00 0.00 0.00 0.00 0.00 0.00 0.00 0.00 0.00 0.00 0.00 0.00 0.00 0.00 0.00 0.00 0.00 0.00 0.00 0.00 0.00 0.00 0.00
0.00 0.00 0.00 0.00 0.00 0.00 0.00 0.00 0.00 0.00 0.00 0.00 0.00 0.00 0.00 0.00 0.00 0.00 0.00 0.00 0.00 0.00 0.00 0.00 0.00 0.00 0.00 0.00 0.00 0.00 0.00 0.00 0.00 0.00 0.00 0.00 0.00 0.00 0.00 0.00 0.00 0.00 0.00
0.00 0.00 0.00 0.00 0.00 0.00 0.00 0.00 0.00 0.00 0.00 0.00 0.00 0.00 0.00 0.00 0.00 0.00 0.00 0.00 0.00 0.00 0.00 0.00 0.00 0.00 0.00 0.00 0.00 0.00 0.00 0.00 0.00 0.00 0.00 0.00 0.00 0.00 0.00 0.00 0.00 0.00 0.00
0.00 0.00 0.00 0.00 0.00 0.00 0.00 0.00 0.00 0.00 0.00 0.00 0.00 0.00 0.00 0.00 0.00 0.00 0.00 0.00 0.00 0.00 0.00 0.00 0.00 0.00 0.00 0.00 0.00 0.00 0.00 0.00 0.00 0.00 0.00 0.00 0.00 0.00 0.00 0.00 0.00 0.00 0.00
0.00 0.00 0.00 0.00 0.00 0.00 0.00 0.00 0.00 0.00 0.00 0.00 0.00 0.00 0.00 0.00 0.00 0.00 0.00 0.00 0.00 0.00 0.00 0.00 0.00 0.00 0.00 0.00 0.00 0.00 0.00 0.00 0.00 0.00 0.00 0.00 0.00 0.00 0.00 0.00 0.00 0.00 0.00
0.00 0.00 0.00 0.00 0.00 0.00 0.00 0.00 0.00 0.00 0.00 0.00 0.00 0.00 0.00 0.00 0.00 0.00 0.00 0.00 0.00 0.00 0.00 0.00 0.00 0.00 0.00 0.00 0.00 0.00 0.00 0.00 0.00 0.00 0.00 0.00 0.00 0.00 0.00 0.00 0.00 0.00 0.00
0.00 0.00 0.00 0.00 0.00 0.00 0.00 0.00 0.00 0.00 0.00 0.00 0.00 0.00 0.00 0.00 0.00 0.00 0.00 0.00 0.00 0.00 0.00 0.00 0.00 0.00 0.00 0.00 0.00 0.00 0.00 0.00 0.00 0.00 0.00 0.00 0.00 0.00 0.00 0.00 0.00 0.00 0.00
0.00 0.00 0.00 0.00 0.00 0.00 0.00 0.00 0.00 0.00 0.00 0.00 0.00 0.00 0.00 0.00 0.00 0.00 0.00 0.00 0.00 0.00 0.00 0.00 0.00 0.00 0.00 0.00 0.00 0.00 0.00 0.00 0.00 0.00 0.00 0.00 0.00 0.00 0.00 0.00 0.00 0.00 0.00
MSLP
1017.63 1017.61 1017.69 1017.74 1017.81 1017.90 1018.01 1018.07 1018.13 1018.15 1018.14 1018.03 1018.01 1017.91 1017.80 1017.71 1017.61 1017.57 1017.46 1017.27 1017.20 1017.09 1016.98 1016.81 1016.66 1016.61 1016.63 1016.57 1016.53 1016.57 1016.61 1016.63 1016.64 1016.65 1016.60 1016.54 1016.53 1016.47 1016.36 1016.21 1015.96 1015.81 1015.75
1017.19 1017.60 1017.77 1017.83 1017.91 1018.13 1018.22 1018.31 1018.41 1018.44 1018.42 1018.38 1018.31 1018.19 1018.09 1018.07 1017.93 1017.86 1017.76 1017.68 1017.53 1017.42 1017.35 1017.31 1017.11 1017.07 1016.96 1016.92 1016.93 1016.92 1016.91 1016.93 1016.94 1016.96 1016.97 1016.76 1016.70 1016.70 1016.68 1016.56 1016.34 1016.18 1016.08
1017.46 1017.75 1017.84 1018.00 1018.03 1018.17 1018.32 1018.44 1018.54 1018.61 1018.62 1018.60 1018.56 1018.53 1018.39 1018.36 1018.30 1018.22 1018.13 1018.02 1017.91 1017.82 1017.74 1017.61 1017.52 1017.41 1017.36 1017.32 1017.26 1017.22 1017.17 1017.15 1017.13 1017.19 1017.22 1016.83 1016.76 1016.95 1016.93 1016.83 1016.73 1016.55 1016.47
1017.61 1017.79 1017.92 1018.12 1018.24 1018.30 1018.45 1018.54 1018.57 1018.75 1018.83 1018.82 1018.77 1018.81 1018.72 1018.64 1018.64 1018.56 1018.49 1018.42 1018.26 1018.22 1018.07 1017.91 1017.87 1017.77 1017.68 1017.62 1017.57 1017.50 1017.39 1017.35 1017.31 1017.33 1017.10 1017.03 1016.90 1017.19 1017.16 1017.11 1017.02 1016.95 1016.84
1017.64 1017.84 1017.98 1018.18 1018.30 1018.41 1018.53 1018.71 1018.81 1018.87 1018.96 1018.95 1018.92 1018.97 1018.97 1018.90 1018.89 1018.84 1018.77 1018.69 1018.66 1018.56 1018.46 1018.30 1018.16 1018.07 1017.99 1017.87 1017.79 1017.68 1017.54 1017.47 1017.38 1017.32 1017.37 1017.34 1017.26 1017.36 1017.39 1017.42 1017.31 1017.25 1017.19
1017.78 1017.98 1018.12 1018.28 1018.43 1018.56 1018.64 1018.74 1018.88 1018.97 1019.03 1019.04 1019.03 1019.05 1019.09 1019.09 1019.06 1019.02 1018.99 1018.96 1018.89 1018.83 1018.73 1018.59 1018.42 1018.20 1018.16 1018.05 1017.89 1017.79 1017.71 1017.63 1017.56 1017.44 1017.53 1017.53 1017.40 1017.54 1017.55 1017.62 1017.62 1017.55 1017.47
1017.98 1018.11 1018.12 1018.30 1018.45 1018.56 1018.72 1018.80 1018.87 1019.04 1019.14 1019.18 1019.19 1019.20 1019.23 1019.24 1019.25 1019.21 1019.16 1019.14 1019.08 1018.98 1018.96 1018.83 1018.69 1018.51 1018.34 1018.25 1018.13 1017.99 1017.91 1017.85 1017.57 1017.52 1017.57 1017.58 1017.55 1017.61 1017.59 1017.67 1017.73 1017.78 1017.75
1018.06 1018.27 1018.30 1018.51 1018.58 1018.66 1018.82 1018.89 1018.97 1019.15 1019.24 1019.33 1019.35 1019.37 1019.38 1019.36 1019.36 1019.39 1019.38 1019.28 1019.19 1019.09 1019.00 1018.95 1018.86 1018.70 1018.57 1018.45 1018.34 1018.22 1018.16 1018.08 1017.80 1017.66 1017.63 1017.67 1017.77 1017.71 1017.62 1017.68 1017.74 1017.85 1017.89
1018.19 1018.29 1018.43 1018.62 1018.70 1018.85 1018.94 1019.04 1019.17 1019.28 1019.48 1019.57 1019.50 1019.41 1019.52 1019.48 1019.40 1019.41 1019.41 1019.33 1019.19 1019.09 1018.98 1018.93 1018.88 1018.75 1018.71 1018.62 1018.54 1018.41 1018.35 1018.34 1017.97 1017.87 1017.73 1017.67 1017.90 1017.84 1017.62 1017.68 1017.75 1017.82 1017.90
1018.46 1018.53 1018.59 1018.83 1018.95 1019.03 1019.18 1019.41 1019.56 1019.64 1019.81 1019.72 1019.80 1019.86 1019.89 1019.85 1019.75 1019.66 1019.52 1019.44 1019.27 1019.15 1018.99 1018.90 1018.88 1018.80 1018.71 1018.66 1018.65 1018.66 1018.57 1018.44 1018.12 1018.09 1017.90 1017.76 1018.01 1017.84 1017.58 1017.53 1017.65 1017.76 1017.80
1018.81 1018.95 1019.00 1019.18 1019.40 1019.47 1019.69 1020.00 1020.00 1020.32 1020.29 1020.30 1020.27 1020.26 1020.34 1020.27 1020.30 1020.23 1020.21 1019.93 1019.75 1019.63 1019.39 1019.31 1019.23 1019.10 1018.97 1018.87 1018.80 1018.70 1018.67 1018.36 1018.27 1018.03 1017.91 1018.08 1017.99 1017.76 1017.51 1017.39 1017.47 1017.62 1017.67
1019.15 1019.35 1019.23 1019.47 1019.57 1019.83 1020.10 1020.46 1020.62 1020.79 1021.02 1020.93 1020.86 1020.73 1020.66 1020.67 1020.76 1020.70 1020.70 1020.55 1020.27 1020.06 1019.87 1019.71 1019.56 1019.42 1019.06 1018.91 1018.75 1018.69 1018.50 1018.52 1018.35 1018.20 1017.96 1018.10 1017.95 1017.68 1017.39 1017.16 1017.22 1017.42 1017.47
1019.46 1019.66 1019.70 1019.91 1020.05 1020.13 1020.47 1020.77 1020.96 1021.25 1021.35 1021.38 1021.36 1021.27 1021.29 1021.20 1021.20 1021.11 1021.13 1020.98 1020.80 1020.63 1020.28 1020.07 1019.87 1019.81 1019.59 1019.22 1018.98 1018.77 1018.67 1018.46 1018.28 1018.16 1018.06 1018.18 1017.92 1017.65 1017.28 1017.05 1017.05 1017.08 1017.19
1019.80 1020.15 1020.23 1020.32 1020.51 1020.81 1021.15 1021.35 1021.61 1021.65 1021.78 1021.81 1021.98 1021.86 1021.66 1021.62 1021.59 1021.67 1021.62 1021.56 1021.38 1021.22 1020.91 1020.66 1020.38 1020.10 1019.73 1019.50 1019.11 1018.92 1018.69 1018.52 1018.36 1018.15 1018.02 1018.19 1017.93 1017.64 1017.30 1017.00 1016.82 1016.86 1016.89
1020.02 1020.51 1020.79 1020.85 1020.96 1021.30 1021.51 1021.83 1021.92 1022.04 1022.10 1022.29 1022.20 1022.25 1022.04 1022.10 1022.06 1022.05 1022.01 1021.91 1021.82 1021.62 1021.37 1021.02 1020.73 1020.35 1020.03 1019.79 1019.40 1019.13 1018.80 1018.56 1018.34 1018.19 1018.05 1018.04 1017.89 1017.61 1017.27 1016.98 1016.73 1016.54 1016.53
1020.36 1020.82 1021.14 1021.28 1021.45 1021.59 1021.84 1022.06 1022.24 1022.35 1022.51 1022.53 1022.56 1022.56 1022.50 1022.44 1022.36 1022.34 1022.19 1022.08 1021.96 1021.96 1021.67 1021.36 1021.04 1020.69 1020.28 1019.98 1019.61 1019.36 1019.05 1018.68 1018.46 1018.23 1018.00 1017.80 1017.73 1017.53 1017.23 1016.88 1016.62 1016.38 1016.14
1020.58 1021.05 1021.29 1021.57 1021.85 1021.81 1022.08 1022.33 1022.52 1022.59 1022.66 1022.66 1022.75 1022.69 1022.67 1022.68 1022.60 1022.53 1022.40 1022.25 1022.25 1022.13 1021.86 1021.47 1021.06 1020.67 1020.28 1020.01 1019.65 1019.34 1019.01 1018.71 1018.39 1018.06 1017.85 1017.69 1017.41 1017.29 1017.14 1016.79 1016.50 1016.26 1015.98
1020.78 1021.11 1021.50 1021.69 1022.00 1022.12 1022.27 1022.53 1022.68 1022.85 1022.81 1022.84 1022.86 1022.84 1022.80 1022.76 1022.74 1022.66 1022.58 1022.54 1022.51 1022.25 1022.09 1021.68 1021.29 1020.89 1020.51 1020.15 1019.67 1019.21 1018.89 1018.52 1018.17 1017.87 1017.65 1017.47 1017.31 1017.04 1016.67 1016.47 1016.29 1016.01 1015.75
1020.87 1021.21 1021.55 1021.85 1022.06 1022.33 1022.59 1022.75 1022.84 1022.88 1022.85 1022.94 1022.89 1022.82 1022.83 1022.80 1022.76 1022.64 1022.63 1022.60 1022.52 1022.28 1022.06 1021.93 1021.50 1021.26 1020.66 1020.19 1019.72 1019.13 1018.67 1018.23 1017.83 1017.41 1017.11 1017.06 1016.96 1016.82 1016.50 1016.20 1015.99 1015.76 1015.57
1021.14 1021.44 1021.65 1021.96 1022.19 1022.49 1022.81 1022.91 1022.92 1022.87 1022.97 1023.01 1022.87 1022.80 1022.72 1022.70 1022.66 1022.53 1022.50 1022.46 1022.36 1022.12 1021.96 1021.86 1021.54 1021.14 1020.80 1020.17 1019.63 1018.91 1018.31 1017.81 1017.28 1016.83 1016.66 1016.62 1016.51 1016.50 1016.32 1016.07 1015.79 1015.44 1015.40
1021.25 1021.44 1021.62 1021.85 1022.13 1022.37 1022.57 1022.67 1022.79 1022.61 1022.76 1022.77 1022.85 1022.82 1022.70 1022.62 1022.57 1022.48 1022.37 1022.26 1022.23 1022.04 1021.92 1021.78 1021.52 1021.15 1020.53 1020.36 1019.70 1018.59 1017.83 1017.07 1016.73 1016.49 1016.31 1016.29 1016.12 1016.06 1016.02 1015.81 1015.63 1015.41 1015.04
1020.84 1021.20 1021.54 1021.64 1021.92 1022.08 1022.21 1022.31 1022.34 1022.42 1022.60 1022.68 1022.80 1022.67 1022.62 1022.54 1022.49 1022.37 1022.35 1022.16 1022.06 1021.93 1021.73 1021.59 1021.49 1021.13 1020.81 1020.47 1020.04 1019.39 1017.74 1016.80 1016.50 1016.35 1016.20 1016.06 1015.90 1015.82 1015.71 1015.50 1015.36 1015.20 1014.97
1020.59 1020.85 1021.18 1021.45 1021.67 1021.88 1022.06 1022.31 1022.45 1022.58 1022.74 1022.62 1022.53 1022.46 1022.42 1022.43 1022.38 1022.33 1022.21 1022.06 1021.86 1021.78 1021.52 1021.35 1021.22 1021.11 1020.64 1020.48 1020.43 1020.22 1018.86 1017.42 1017.09 1016.39 1016.01 1015.85 1015.70 1015.42 1015.24 1015.11 1014.96 1014.84 1014.63
1020.20 1020.78 1021.05 1021.32 1021.51 1021.73 1021.89 1021.98 1021.97 1022.08 1022.25 1022.30 1022.47 1022.42 1022.30 1022.32 1022.23 1022.25 1022.16 1021.98 1021.77 1021.51 1021.26 1021.00 1020.77 1020.68 1020.59 1020.06 1019.92 1019.81 1019.50 1018.87 1018.10 1016.33 1015.89 1015.78 1015.70 1015.42 1015.06 1014.83 1014.55 1014.36 1014.15
1020.19 1020.46 1020.83 1021.19 1021.43 1021.53 1021.59 1021.78 1021.90 1021.97 1022.21 1022.32 1022.42 1022.33 1022.15 1022.01 1022.04 1021.98 1021.83 1021.66 1021.42 1021.18 1020.89 1020.63 1020.38 1020.20 1020.02 1019.74 1019.43 1019.13 1018.76 1018.49 1018.30 1017.64 1015.83 1015.43 1015.06 1015.10 1014.93 1014.69 1014.35 1014.02 1013.77
1020.07 1020.45 1020.83 1021.04 1021.10 1021.33 1021.52 1021.71 1021.91 1021.96 1022.03 1022.20 1022.28 1022.21 1022.09 1022.00 1021.81 1021.57 1021.39 1021.24 1021.02 1020.72 1020.39 1020.11 1019.89 1019.70 1019.43 1019.09 1018.92 1018.67 1018.31 1017.86 1017.25 1017.11 1016.27 1015.45 1014.90 1014.65 1014.56 1014.30 1014.01 1013.69 1013.40
Thickness
5763 5763 5761 5760 5758 5757 5755 5753 5752 5751 5750 5750 5749 5748 5748 5747 5747 5746 5746 5747 5747 5746 5746 5746 5746 5746 5745 5744 5744 5743 5742 5740 5739 5737 5737 5735 5734 5733 5733 5733 5735 5735 5735
5765 5761 5758 5757 5755 5752 5751 5749 5747 5746 5745 5745 5745 5744 5744 5743 5743 5743 5743 5742 5743 5743 5742 5741 5741 5741 5741 5740 5739 5739 5738 5737 5737 5735 5734 5734 5733 5732 5731 5731 5732 5733 5733
5761 5758 5756 5755 5753 5750 5747 5745 5744 5742 5742 5741 5740 5740 5740 5739 5738 5738 5738 5738 5738 5738 5738 5738 5737 5737 5736 5736 5735 5735 5735 5735 5734 5733 5732 5733 5732 5730 5729 5730 5730 5730 5731
5758 5756 5754 5751 5749 5747 5744 5742 5740 5738 5737 5736 5736 5735 5734 5734 5734 5734 5733 5733 5733 5733 5733 5733 5733 5733 5732 5732 5731 5731 5732 5732 5732 5731 5731 5731 5731 5728 5728 5727 5728 5727 5727
5757 5754 5751 5748 5746 5744 5741 5738 5736 5735 5733 5733 5732 5731 5730 5730 5729 5729 5729 5728 5728 5727 5728 5728 5729 5728 5728 5728 5728 5728 5729 5730 5730 5729 5729 5728 5728 5726 5726 5725 5725 5725 5725
5753 5750 5747 5744 5742 5740 5738 5736 5734 5733 5731 5730 5729 5728 5727 5726 5725 5725 5724 5724 5724 5723 5724 5724 5724 5725 5724 5724 5725 5725 5725 5727 5727 5727 5726 5725 5726 5724 5724 5723 5722 5723 5722
5749 5746 5744 5742 5739 5737 5735 5733 5732 5730 5728 5726 5725 5724 5723 5722 5721 5720 5720 5719 5719 5719 5719 5719 5720 5721 5722 5721 5721 5722 5722 5722 5724 5724 5723 5723 5723 5722 5722 5721 5721 5720 5720
5745 5741 5739 5736 5735 5733 5731 5729 5728 5725 5723 5721 5720 5719 5718 5717 5716 5715 5715 5715 5715 5715 5715 5716 5716 5717 5718 5718 5718 5718 5718 5718 5720 5721 5721 5720 5720 5720 5720 5720 5719 5718 5717
5740 5736 5734 5731 5729 5728 5726 5724 5722 5720 5718 5716 5716 5715 5713 5713 5713 5712 5711 5711 5711 5712 5712 5712 5712 5713 5714 5715 5715 5715 5716 5715 5716 5717 5718 5719 5717 5717 5718 5717 5717 5716 5715
5735 5732 5730 5727 5725 5723 5721 5718 5716 5715 5712 5712 5711 5709 5708 5707 5707 5707 5707 5706 5706 5707 5708 5708 5709 5710 5710 5711 5711 5711 5712 5713 5713 5713 5713 5715 5714 5714 5716 5716 5715 5714 5714
5729 5727 5724 5721 5718 5716 5714 5711 5710 5706 5706 5705 5704 5703 5702 5701 5700 5699 5698 5700 5700 5700 5702 5702 5703 5704 5705 5706 5707 5708 5708 5709 5710 5710 5711 5710 5710 5712 5714 5715 5713 5712 5711
5723 5720 5718 5714 5712 5710 5706 5703 5702 5700 5698 5696 5695 5695 5694 5693 5692 5692 5692 5693 5693 5694 5695 5695 5696 5697 5700 5701 5702 5703 5704 5704 5705 5705 5707 5706 5706 5707 5710 5712 5712 5710 5710
5717 5715 5713 5709 5706 5703 5698 5695 5693 5690 5689 5687 5687 5686 5685 5684 5684 5684 5683 5684 5685 5685 5687 5688 5689 5689 5690 5692 5694 5695 5696 5698 5699 5700 5701 5701 5702 5703 5705 5707 5707 5707 5707
5710 5707 5705 5703 5699 5695 5691 5688 5684 5682 5679 5678 5676 5676 5677 5676 5675 5675 5674 5675 5675 5675 5677 5678 5679 5680 5682 5683 5685 5687 5688 5690 5691 5693 5694 5694 5695 5697 5699 5701 5701 5702 5703
5704 5699 5695 5693 5690 5687 5684 5680 5678 5675 5672 5669 5668 5667 5667 5666 5666 5665 5665 5665 5665 5666 5666 5668 5669 5671 5673 5674 5676 5677 5679 5681 5683 5684 5686 5686 5688 5690 5692 5694 5695 5696 5697
5695 5691 5686 5684 5681 5678 5675 5672 5669 5667 5664 5662 5661 5660 5659 5658 5657 5656 5656 5656 5657 5656 5657 5658 5659 5661 5664 5665 5667 5668 5669 5670 5671 5673 5675 5678 5680 5681 5684 5686 5687 5689 5691
5687 5682 5679 5675 5672 5669 5666 5663 5659 5657 5655 5654 5652 5651 5650 5649 5648 5648 5647 5647 5646 5646 5647 5649 5651 5652 5654 5655 5657 5658 5660 5662 5663 5664 5665 5667 5669 5672 5675 5677 5679 5681 5682
5679 5675 5670 5667 5663 5660 5657 5653 5650 5647 5646 5645 5644 5643 5642 5640 5639 5637 5637 5636 5635 5635 5635 5636 5638 5639 5641 5644 5646 5648 5649 5651 5652 5654 5655 5656 5658 5660 5664 5667 5669 5672 5674
5671 5667 5663 5658 5654 5651 5647 5644 5641 5639 5638 5636 5635 5633 5632 5630 5629 5628 5626 5625 5624 5624 5624 5623 5624 5624 5626 5629 5632 5635 5637 5638 5641 5643 5645 5646 5646 5648 5651 5653 5657 5660 5662
5662 5658 5654 5649 5646 5641 5637 5634 5632 5631 5629 5627 5625 5624 5622 5620 5619 5617 5615 5613 5612 5611 5610 5610 5610 5611 5611 5616 5618 5622 5624 5627 5629 5632 5632 5632 5633 5634 5636 5639 5641 5645 5648
5653 5650 5647 5643 5638 5634 5631 5628 5625 5625 5621 5619 5617 5615 5612 5610 5607 5605 5602 5600 5598 5597 5596 5595 5595 5595 5597 5596 5601 5609 5612 5616 5616 5618 5617 5615 5616 5617 5619 5622 5625 5628 5632
5649 5644 5640 5637 5632 5629 5626 5623 5621 5618 5613 5610 5607 5605 5601 5598 5595 5592 5589 5587 5585 5583 5582 5580 5579 5580 5579 5577 5579 5581 5597 5603 5601 5599 5598 5598 5598 5598 5599 5602 5606 5609 5614
5642 5638 5634 5630 5627 5623 5620 5615 5611 5607 5603 5601 5598 5594 5590 5586 5583 5579 5576 5574 5572 5570 5569 5566 5563 5560 5562 5560 5555 5553 5564 5577 5577 5583 5582 5581 5580 5581 5581 5583 5586 5590 5595
5638 5631 5627 5623 5620 5617 5613 5609 5606 5602 5597 5592 5585 5581 5578 5574 5570 5566 5562 5560 5557 5556 5554 5552 5550 5547 5543 5544 5542 5539 5536 5537 5539 5559 5568 5564 5562 5561 5562 5563 5566 5569 5575
5631 5627 5622 5617 5613 5610 5606 5601 5596 5590 5584 5578 5573 5569 5565 5562 5557 5553 5550 5547 5543 5540 5538 5536 5534 5532 5529 5527 5524 5523 5524 5521 5516 5515 5534 5547 5546 5542 5542 5542 5544 5548 5554
5626 5620 5614 5610 5607 5601 5595 5589 5582 5577 5571 5565 5560 5556 5552 5547 5544 5540 5537 5533 5529 5526 5524 5522 5519 5516 5513 5511 5505 5501 5500 5501 5503 5495 5499 5510 5517 5524 5518 5520 5523 5526 5530